Time,TemperatureF,DewpointF,PressureIn,WindDirection,WindDirectionDegrees,WindSpeedMPH,WindSpeedGustMPH,Humidity,HourlyPrecipIn,Conditions,Clouds,dailyrainin,SoftwareType,DateUTC
2013-03-08 00:00:00,35.5,25.6,30.21,NNW,338,0.0,0.0,67,0.00,CLR,,0.00,WeatherDisplay:10.37,2013-03-08 05:00:00,
2013-03-08 00:05:00,35.3,25.8,30.21,West,274,1.1,0.0,68,0.00,CLR,,0.00,WeatherDisplay:10.37,2013-03-08 05:05:00,
2013-03-08 00:10:00,35.3,25.8,30.21,NW,305,0.0,0.0,68,0.00,CLR,,0.00,WeatherDisplay:10.37,2013-03-08 05:10:00,
2013-03-08 00:15:00,35.2,25.7,30.21,WNW,283,2.3,2.3,68,0.00,CLR,,0.00,WeatherDisplay:10.37,2013-03-08 05:15:00,
2013-03-08 00:20:00,35.1,25.9,30.21,WSW,245,0.0,0.0,69,0.00,CLR,,0.00,WeatherDisplay:10.37,2013-03-08 05:20:00,
2013-03-08 00:25:00,34.9,25.8,30.21,NW,305,1.1,0.0,69,0.00,CLR,,0.00,WeatherDisplay:10.37,2013-03-08 05:25:00,
2013-03-08 00:30:00,34.8,25.7,30.21,NW,305,0.0,0.0,69,0.00,CLR,,0.00,WeatherDisplay:10.37,2013-03-08 05:30:00,
2013-03-08 00:32:00,34.8,25.7,30.21,NW,305,0.0,0.0,69,0.00,CLR,,0.00,WeatherDisplay:10.37,2013-03-08 05:32:00,
2013-03-08 00:37:00,34.6,25.5,30.21,WNW,299,0.0,0.0,69,0.00,CLR,,0.00,WeatherDisplay:10.37,2013-03-08 05:37:00,
2013-03-08 00:42:00,34.6,25.8,30.21,North,5,0.0,0.0,70,0.00,CLR,,0.00,WeatherDisplay:10.37,2013-03-08 05:42:00,
2013-03-08 00:47:00,34.5,25.7,30.21,North,352,0.0,0.0,70,0.00,CLR,,0.00,WeatherDisplay:10.37,2013-03-08 05:47:00,
2013-03-08 00:52:00,34.6,25.5,30.21,North,4,1.1,1.1,69,0.00,CLR,,0.00,WeatherDisplay:10.37,2013-03-08 05:52:00,
2013-03-08 00:57:00,34.8,25.7,30.21,North,360,0.0,0.0,69,0.00,CLR,,0.00,WeatherDisplay:10.37,2013-03-08 05:57:00,
2013-03-08 01:02:00,35.0,25.9,30.21,North,11,2.3,2.3,69,0.00,CLR,,0.00,WeatherDisplay:10.37,2013-03-08 06:02:00,
2013-03-08 01:07:00,35.0,25.9,30.21,NNE,15,0.0,0.0,69,0.00,CLR,,0.00,WeatherDisplay:10.37,2013-03-08 06:07:00,
2013-03-08 01:12:00,34.8,25.7,30.20,NW,315,2.3,2.3,69,0.00,CLR,,0.00,WeatherDisplay:10.37,2013-03-08 06:12:00,
2013-03-08 01:17:00,34.7,25.9,30.20,North,8,1.1,1.1,70,0.00,CLR,,0.00,WeatherDisplay:10.37,2013-03-08 06:17:00,
2013-03-08 01:22:00,34.5,25.7,30.21,NW,312,0.0,0.0,70,0.00,CLR,,0.00,WeatherDisplay:10.37,2013-03-08 06:22:00,
2013-03-08 01:27:00,34.4,25.6,30.21,West,267,0.0,0.0,70,0.00,CLR,,0.00,WeatherDisplay:10.37,2013-03-08 06:27:00,
2013-03-08 01:32:00,34.1,25.7,30.21,West,267,0.0,0.0,71,0.00,CLR,,0.00,WeatherDisplay:10.37,2013-03-08 06:32:00,
2013-03-08 01:37:00,34.0,25.6,30.21,NNW,343,0.0,0.0,71,0.00,CLR,,0.00,WeatherDisplay:10.37,2013-03-08 06:37:00,
2013-03-08 01:42:00,33.8,25.7,30.21,NW,310,0.0,0.0,72,0.00,CLR,,0.00,WeatherDisplay:10.37,2013-03-08 06:42:00,
2013-03-08 01:47:00,33.4,25.3,30.21,NW,311,0.0,0.0,72,0.00,CLR,,0.00,WeatherDisplay:10.37,2013-03-08 06:47:00,
2013-03-08 01:52:00,33.5,25.8,30.21,NW,308,0.0,0.0,73,0.00,CLR,,0.00,WeatherDisplay:10.37,2013-03-08 06:52:00,
2013-03-08 01:57:00,33.3,25.6,30.20,NW,308,0.0,0.0,73,0.00,CLR,,0.00,WeatherDisplay:10.37,2013-03-08 06:57:00,
2013-03-08 02:02:00,33.1,25.7,30.20,West,280,0.0,0.0,74,0.00,CLR,,0.00,WeatherDisplay:10.37,2013-03-08 07:02:00,
2013-03-08 02:07:00,32.7,25.3,30.21,West,279,0.0,0.0,74,0.00,CLR,,0.00,WeatherDisplay:10.37,2013-03-08 07:07:00,
2013-03-08 02:12:00,32.5,25.8,30.20,West,281,0.0,0.0,76,0.00,CLR,,0.00,WeatherDisplay:10.37,2013-03-08 07:12:00,
2013-03-08 02:17:00,32.5,26.1,30.20,NW,315,2.3,0.0,77,0.00,CLR,,0.00,WeatherDisplay:10.37,2013-03-08 07:17:00,
2013-03-08 02:22:00,32.4,25.7,30.20,NW,315,0.0,0.0,76,0.00,CLR,,0.00,WeatherDisplay:10.37,2013-03-08 07:22:00,
2013-03-08 02:27:00,32.1,25.4,30.20,NW,315,0.0,0.0,76,0.00,CLR,,0.00,WeatherDisplay:10.37,2013-03-08 07:27:00,
2013-03-08 02:32:00,32.0,25.3,30.19,WNW,290,0.0,0.0,76,0.00,CLR,,0.00,WeatherDisplay:10.37,2013-03-08 07:32:00,
2013-03-08 02:37:00,31.8,25.4,30.19,WNW,289,0.0,0.0,77,0.00,CLR,,0.00,WeatherDisplay:10.37,2013-03-08 07:37:00,
2013-03-08 02:42:00,31.6,25.5,30.19,WNW,291,0.0,0.0,78,0.00,CLR,,0.00,WeatherDisplay:10.37,2013-03-08 07:42:00,
2013-03-08 02:47:00,31.4,25.3,30.19,WNW,291,0.0,0.0,78,0.00,CLR,,0.00,WeatherDisplay:10.37,2013-03-08 07:47:00,
2013-03-08 02:52:00,31.3,25.2,30.19,WNW,291,0.0,0.0,78,0.00,CLR,,0.00,WeatherDisplay:10.37,2013-03-08 07:52:00,
2013-03-08 02:57:00,31.1,25.0,30.18,WNW,291,0.0,0.0,78,0.00,CLR,,0.00,WeatherDisplay:10.37,2013-03-08 07:57:00,
2013-03-08 03:02:00,30.9,25.2,30.18,East,95,0.0,0.0,79,0.00,CLR,,0.00,WeatherDisplay:10.37,2013-03-08 08:02:00,
2013-03-08 03:07:00,30.8,25.1,30.19,East,95,0.0,0.0,79,0.00,CLR,,0.00,WeatherDisplay:10.37,2013-03-08 08:07:00,
2013-03-08 03:12:00,30.8,25.1,30.18,East,94,0.0,0.0,79,0.00,CLR,,0.00,WeatherDisplay:10.37,2013-03-08 08:12:00,
2013-03-08 03:17:00,30.8,25.1,30.18,North,358,1.1,0.0,79,0.00,CLR,,0.00,WeatherDisplay:10.37,2013-03-08 08:17:00,
2013-03-08 03:22:00,30.9,25.2,30.18,NW,318,0.0,0.0,79,0.00,CLR,,0.00,WeatherDisplay:10.37,2013-03-08 08:22:00,
2013-03-08 03:27:00,30.9,25.2,30.18,NW,318,0.0,0.0,79,0.00,CLR,,0.00,WeatherDisplay:10.37,2013-03-08 08:27:00,
2013-03-08 03:32:00,30.8,25.1,30.18,NW,318,0.0,0.0,79,0.00,CLR,,0.00,WeatherDisplay:10.37,2013-03-08 08:32:00,
2013-03-08 03:37:00,30.6,25.2,30.18,NW,318,0.0,0.0,80,0.00,CLR,,0.00,WeatherDisplay:10.37,2013-03-08 08:37:00,
2013-03-08 03:42:00,30.5,25.1,30.18,NW,318,0.0,0.0,80,0.00,CLR,,0.00,WeatherDisplay:10.37,2013-03-08 08:42:00,
2013-03-08 03:47:00,30.3,24.9,30.18,WNW,283,0.0,0.0,80,0.00,CLR,,0.00,WeatherDisplay:10.37,2013-03-08 08:47:00,
2013-03-08 03:52:00,30.2,25.1,30.19,WNW,283,0.0,0.0,81,0.00,CLR,,0.00,WeatherDisplay:10.37,2013-03-08 08:52:00,
2013-03-08 03:57:00,30.2,25.1,30.19,NW,305,0.0,0.0,81,0.00,CLR,,0.00,WeatherDisplay:10.37,2013-03-08 08:57:00,
2013-03-08 04:02:00,30.2,25.1,30.19,NW,305,0.0,0.0,81,0.00,CLR,,0.00,WeatherDisplay:10.37,2013-03-08 09:02:00,
2013-03-08 04:07:00,30.1,25.0,30.19,NW,305,0.0,0.0,81,0.00,CLR,,0.00,WeatherDisplay:10.37,2013-03-08 09:07:00,
2013-03-08 04:12:00,30.0,24.9,30.19,NW,315,0.0,0.0,81,0.00,CLR,,0.00,WeatherDisplay:10.37,2013-03-08 09:12:00,
2013-03-08 04:17:00,30.0,24.9,30.19,NW,315,0.0,0.0,81,0.00,CLR,,0.00,WeatherDisplay:10.37,2013-03-08 09:17:00,
2013-03-08 04:22:00,30.1,25.0,30.19,NW,315,0.0,0.0,81,0.00,CLR,,0.00,WeatherDisplay:10.37,2013-03-08 09:22:00,
2013-03-08 04:27:00,30.2,25.1,30.18,NW,308,1.1,1.1,81,0.00,CLR,,0.00,WeatherDisplay:10.37,2013-03-08 09:27:00,
2013-03-08 04:32:00,30.5,25.1,30.18,NW,306,1.1,0.0,80,0.00,CLR,,0.00,WeatherDisplay:10.37,2013-03-08 09:32:00,
2013-03-08 04:37:00,30.6,25.2,30.18,NNW,328,0.0,0.0,80,0.00,CLR,,0.00,WeatherDisplay:10.37,2013-03-08 09:37:00,
2013-03-08 04:42:00,30.5,25.1,30.18,NNW,328,0.0,0.0,80,0.00,CLR,,0.00,WeatherDisplay:10.37,2013-03-08 09:42:00,
2013-03-08 04:47:00,30.7,25.3,30.18,NW,319,0.0,0.0,80,0.00,CLR,,0.00,WeatherDisplay:10.37,2013-03-08 09:47:00,
2013-03-08 04:52:00,30.6,25.2,30.18,NW,319,0.0,0.0,80,0.00,CLR,,0.00,WeatherDisplay:10.37,2013-03-08 09:52:00,
2013-03-08 04:57:00,30.6,25.2,30.18,NW,316,0.0,0.0,80,0.00,CLR,,0.00,WeatherDisplay:10.37,2013-03-08 09:57:00,
2013-03-08 05:02:00,30.6,25.2,30.19,NW,316,0.0,0.0,80,0.00,CLR,,0.00,WeatherDisplay:10.37,2013-03-08 10:02:00,
2013-03-08 05:07:00,30.4,25.3,30.19,NW,316,0.0,0.0,81,0.00,CLR,,0.00,WeatherDisplay:10.37,2013-03-08 10:07:00,
2013-03-08 05:12:00,30.2,25.1,30.19,NNW,335,1.1,0.0,81,0.00,CLR,,0.00,WeatherDisplay:10.37,2013-03-08 10:12:00,
2013-03-08 05:17:00,30.1,25.3,30.19,West,274,0.0,0.0,82,0.00,CLR,,0.00,WeatherDisplay:10.37,2013-03-08 10:17:00,
2013-03-08 05:22:00,30.0,25.2,30.19,West,274,0.0,0.0,82,0.00,CLR,,0.00,WeatherDisplay:10.37,2013-03-08 10:22:00,
2013-03-08 05:27:00,29.9,25.1,30.19,West,273,0.0,0.0,82,0.00,CLR,,0.00,WeatherDisplay:10.37,2013-03-08 10:27:00,
2013-03-08 05:32:00,29.9,25.4,30.19,West,273,0.0,0.0,83,0.00,CLR,,0.00,WeatherDisplay:10.37,2013-03-08 10:32:00,
2013-03-08 05:37:00,29.8,25.3,30.19,West,274,0.0,0.0,83,0.00,CLR,,0.00,WeatherDisplay:10.37,2013-03-08 10:37:00,
2013-03-08 05:42:00,29.9,25.4,30.20,NE,37,0.0,0.0,83,0.00,CLR,,0.00,WeatherDisplay:10.37,2013-03-08 10:42:00,
2013-03-08 05:47:00,30.1,25.3,30.20,NW,309,0.0,0.0,82,0.00,CLR,,0.00,WeatherDisplay:10.37,2013-03-08 10:47:00,
2013-03-08 05:52:00,30.4,25.6,30.20,North,355,0.0,0.0,82,0.00,CLR,,0.00,WeatherDisplay:10.37,2013-03-08 10:52:00,
2013-03-08 05:57:00,30.8,25.7,30.20,WNW,288,3.5,0.0,81,0.00,CLR,,0.00,WeatherDisplay:10.37,2013-03-08 10:57:00,
2013-03-08 06:02:00,31.2,25.7,30.21,NW,310,0.0,0.0,80,0.00,CLR,,0.00,WeatherDisplay:10.37,2013-03-08 11:02:00,
2013-03-08 06:07:00,31.2,25.4,30.20,NW,312,0.0,0.0,79,0.00,CLR,,0.00,WeatherDisplay:10.37,2013-03-08 11:07:00,
2013-03-08 06:12:00,31.0,25.6,30.21,WNW,295,1.1,0.0,80,0.00,CLR,,0.00,WeatherDisplay:10.37,2013-03-08 11:12:00,
2013-03-08 06:17:00,31.0,25.6,30.21,WNW,295,0.0,0.0,80,0.00,CLR,,0.00,WeatherDisplay:10.37,2013-03-08 11:17:00,
2013-03-08 06:22:00,30.9,25.5,30.21,WNW,295,0.0,0.0,80,0.00,CLR,,0.00,WeatherDisplay:10.37,2013-03-08 11:22:00,
2013-03-08 06:27:00,30.8,25.4,30.21,NNW,333,0.0,0.0,80,0.00,CLR,,0.00,WeatherDisplay:10.37,2013-03-08 11:27:00,
2013-03-08 06:32:00,30.9,25.5,30.21,NW,319,1.1,0.0,80,0.00,CLR,,0.00,WeatherDisplay:10.37,2013-03-08 11:32:00,
2013-03-08 06:37:00,31.0,25.6,30.21,NW,319,0.0,0.0,80,0.00,CLR,,0.00,WeatherDisplay:10.37,2013-03-08 11:37:00,
2013-03-08 06:42:00,31.4,25.6,30.22,SW,233,2.3,2.3,79,0.00,CLR,,0.00,WeatherDisplay:10.37,2013-03-08 11:42:00,
2013-03-08 06:47:00,31.7,25.9,30.22,WSW,250,0.0,0.0,79,0.00,CLR,,0.00,WeatherDisplay:10.37,2013-03-08 11:47:00,
2013-03-08 06:52:00,31.9,25.8,30.22,North,357,1.1,1.1,78,0.00,CLR,,0.00,WeatherDisplay:10.37,2013-03-08 11:52:00,
2013-03-08 06:57:00,32.0,25.9,30.22,NNW,338,1.1,0.0,78,0.00,CLR,,0.00,WeatherDisplay:10.37,2013-03-08 11:57:00,
2013-03-08 07:02:00,32.1,26.0,30.22,NNW,339,0.0,0.1,78,0.00,CLR,,0.00,WeatherDisplay:10.37,2013-03-08 12:02:00,
2013-03-08 07:07:00,32.5,26.1,30.22,WNW,289,0.0,0.0,77,0.00,CLR,,0.00,WeatherDisplay:10.37,2013-03-08 12:07:00,
2013-03-08 07:12:00,32.7,26.3,30.22,NE,48,1.1,0.0,77,0.00,CLR,,0.00,WeatherDisplay:10.37,2013-03-08 12:12:00,
2013-03-08 07:17:00,32.9,26.5,30.22,West,267,0.0,0.0,77,0.00,CLR,,0.00,WeatherDisplay:10.37,2013-03-08 12:17:00,
2013-03-08 07:22:00,33.1,26.4,30.22,WNW,288,1.1,1.1,76,0.00,CLR,,0.00,WeatherDisplay:10.37,2013-03-08 12:22:00,
2013-03-08 07:28:00,33.6,26.8,30.22,WNW,286,0.0,0.0,76,0.00,CLR,,0.00,WeatherDisplay:10.37,2013-03-08 12:28:00,
2013-03-08 07:33:00,34.0,26.9,30.22,WSW,240,2.0,2.0,75,0.00,CLR,,0.00,WeatherDisplay:10.37,2013-03-08 12:33:00,
2013-03-08 07:38:00,34.5,27.1,30.22,NE,44,2.3,2.3,74,0.00,CLR,,0.00,WeatherDisplay:10.37,2013-03-08 12:38:00,
2013-03-08 07:43:00,35.3,27.2,30.22,WNW,291,2.0,2.0,72,0.00,CLR,,0.00,WeatherDisplay:10.37,2013-03-08 12:43:00,
2013-03-08 07:48:00,36.0,27.2,30.22,SW,225,1.1,1.7,70,0.00,CLR,,0.00,WeatherDisplay:10.37,2013-03-08 12:48:00,
2013-03-08 07:53:00,36.8,27.6,30.22,WSW,256,4.6,4.6,69,0.00,CLR,,0.00,WeatherDisplay:10.37,2013-03-08 12:53:00,
2013-03-08 07:58:00,37.4,27.8,30.22,WNW,297,2.3,2.3,68,0.00,CLR,,0.00,WeatherDisplay:10.37,2013-03-08 12:58:00,
2013-03-08 08:03:00,38.1,27.7,30.23,NNE,16,4.6,4.6,66,0.00,CLR,,0.00,WeatherDisplay:10.37,2013-03-08 13:03:00,
2013-03-08 08:08:00,38.7,27.6,30.22,North,356,4.6,4.6,64,0.00,CLR,,0.00,WeatherDisplay:10.37,2013-03-08 13:08:00,
2013-03-08 08:13:00,39.3,27.7,30.23,WNW,291,3.5,3.5,63,0.00,CLR,,0.00,WeatherDisplay:10.37,2013-03-08 13:13:00,
2013-03-08 08:18:00,39.7,27.7,30.23,NNW,342,4.6,4.6,62,0.00,CLR,,0.00,WeatherDisplay:10.37,2013-03-08 13:18:00,
2013-03-08 08:23:00,40.1,28.1,30.23,North,360,5.8,5.8,62,0.00,CLR,,0.00,WeatherDisplay:10.37,2013-03-08 13:23:00,
2013-03-08 08:28:00,40.4,28.0,30.23,SSW,200,2.3,2.3,61,0.00,CLR,,0.00,WeatherDisplay:10.37,2013-03-08 13:28:00,
2013-03-08 08:33:00,41.0,28.6,30.23,NNW,345,6.9,6.9,61,0.00,CLR,,0.00,WeatherDisplay:10.37,2013-03-08 13:33:00,
2013-03-08 08:38:00,41.5,28.6,30.23,North,359,4.6,4.6,60,0.00,CLR,,0.00,WeatherDisplay:10.37,2013-03-08 13:38:00,
2013-03-08 08:43:00,41.9,28.6,30.24,WSW,252,3.5,3.5,59,0.00,CLR,,0.00,WeatherDisplay:10.37,2013-03-08 13:43:00,
2013-03-08 08:48:00,42.4,28.7,30.23,NNW,345,3.5,3.5,58,0.00,CLR,,0.00,WeatherDisplay:10.37,2013-03-08 13:48:00,
2013-03-08 08:53:00,42.6,28.4,30.23,NNE,13,3.5,3.5,57,0.00,CLR,,0.00,WeatherDisplay:10.37,2013-03-08 13:53:00,
2013-03-08 08:58:00,42.8,28.6,30.24,NNE,16,2.3,2.3,57,0.00,CLR,,0.00,WeatherDisplay:10.37,2013-03-08 13:58:00,
2013-03-08 09:03:00,43.1,28.5,30.23,WNW,294,10.4,10.4,56,0.00,CLR,,0.00,WeatherDisplay:10.37,2013-03-08 14:03:00,
2013-03-08 09:08:00,43.2,28.5,30.23,NNW,348,6.9,6.9,56,0.00,CLR,,0.00,WeatherDisplay:10.37,2013-03-08 14:08:00,
2013-03-08 09:13:00,43.6,28.5,30.23,ENE,60,6.9,6.9,55,0.00,CLR,,0.00,WeatherDisplay:10.37,2013-03-08 14:13:00,
2013-03-08 09:18:00,43.9,28.8,30.23,NNE,18,3.5,3.5,55,0.00,CLR,,0.00,WeatherDisplay:10.37,2013-03-08 14:18:00,
2013-03-08 09:23:00,44.4,28.8,30.23,South,187,9.2,9.2,54,0.00,CLR,,0.00,WeatherDisplay:10.37,2013-03-08 14:23:00,
2013-03-08 09:28:00,44.5,29.3,30.24,North,8,5.8,5.8,55,0.00,CLR,,0.00,WeatherDisplay:10.37,2013-03-08 14:28:00,
2013-03-08 09:33:00,44.7,28.1,30.23,North,352,10.4,10.4,52,0.00,CLR,,0.00,WeatherDisplay:10.37,2013-03-08 14:33:00,
2013-03-08 09:38:00,44.8,28.2,30.23,East,92,10.4,10.4,52,0.00,CLR,,0.00,WeatherDisplay:10.37,2013-03-08 14:38:00,
2013-03-08 09:43:00,44.7,27.7,30.23,NNE,33,11.5,11.5,51,0.00,CLR,,0.00,WeatherDisplay:10.37,2013-03-08 14:43:00,
2013-03-08 09:48:00,44.8,27.8,30.23,North,6,5.0,5.0,51,0.00,CLR,,0.00,WeatherDisplay:10.37,2013-03-08 14:48:00,
2013-03-08 09:53:00,44.9,27.8,30.23,North,353,5.8,5.8,51,0.00,CLR,,0.00,WeatherDisplay:10.37,2013-03-08 14:53:00,
2013-03-08 09:58:00,44.9,27.4,30.23,NE,40,8.1,8.1,50,0.00,CLR,,0.00,WeatherDisplay:10.37,2013-03-08 14:58:00,
2013-03-08 10:03:00,45.5,27.9,30.23,NW,323,11.5,11.5,50,0.00,CLR,,0.00,WeatherDisplay:10.37,2013-03-08 15:03:00,
2013-03-08 10:08:00,45.7,27.6,30.23,ENE,65,4.6,4.6,49,0.00,CLR,,0.00,WeatherDisplay:10.37,2013-03-08 15:08:00,
2013-03-08 10:13:00,45.8,27.7,30.24,WNW,303,10.4,10.4,49,0.00,CLR,,0.00,WeatherDisplay:10.37,2013-03-08 15:13:00,
2013-03-08 10:18:00,45.9,27.8,30.24,North,1,4.6,4.6,49,0.00,CLR,,0.00,WeatherDisplay:10.37,2013-03-08 15:18:00,
2013-03-08 10:23:00,46.2,27.6,30.23,NW,320,11.5,11.5,48,0.00,CLR,,0.00,WeatherDisplay:10.37,2013-03-08 15:23:00,
2013-03-08 10:28:00,46.3,27.7,30.23,WNW,291,6.9,6.9,48,0.00,CLR,,0.00,WeatherDisplay:10.37,2013-03-08 15:28:00,
2013-03-08 10:33:00,46.5,27.3,30.23,NW,325,6.9,6.9,47,0.00,CLR,,0.00,WeatherDisplay:10.37,2013-03-08 15:33:00,
2013-03-08 10:38:00,46.6,27.4,30.23,ENE,78,9.2,9.2,47,0.00,CLR,,0.00,WeatherDisplay:10.37,2013-03-08 15:38:00,
2013-03-08 10:43:00,46.6,27.4,30.23,North,356,6.9,6.9,47,0.00,CLR,,0.00,WeatherDisplay:10.37,2013-03-08 15:43:00,
2013-03-08 10:48:00,47.1,27.4,30.23,NNE,29,6.9,6.9,46,0.00,CLR,,0.00,WeatherDisplay:10.37,2013-03-08 15:48:00,
2013-03-08 10:53:00,47.5,27.7,30.22,WSW,248,9.2,9.2,46,0.00,CLR,,0.00,WeatherDisplay:10.37,2013-03-08 15:53:00,
2013-03-08 10:58:00,47.6,26.7,30.22,WSW,248,10.0,10.0,44,0.00,CLR,,0.00,WeatherDisplay:10.37,2013-03-08 15:58:00,
2013-03-08 11:03:00,47.7,26.3,30.22,NNW,348,11.5,11.5,43,0.00,CLR,,0.00,WeatherDisplay:10.37,2013-03-08 16:03:00,
2013-03-08 11:08:00,48.1,26.6,30.22,ENE,68,8.1,8.1,43,0.00,CLR,,0.00,WeatherDisplay:10.37,2013-03-08 16:08:00,
2013-03-08 11:13:00,47.9,25.9,30.22,NW,316,5.8,5.8,42,0.00,CLR,,0.00,WeatherDisplay:10.37,2013-03-08 16:13:00,
2013-03-08 11:18:00,48.1,25.5,30.21,West,265,12.7,12.7,41,0.00,CLR,,0.00,WeatherDisplay:10.37,2013-03-08 16:18:00,
2013-03-08 11:23:00,48.2,25.0,30.21,West,281,10.4,10.4,40,0.00,CLR,,0.00,WeatherDisplay:10.37,2013-03-08 16:23:00,
2013-03-08 11:28:00,48.7,26.0,30.21,NE,49,10.4,10.4,41,0.00,CLR,,0.00,WeatherDisplay:10.37,2013-03-08 16:28:00,
2013-03-08 11:33:00,48.9,25.0,30.21,NNE,20,5.8,5.8,39,0.00,CLR,,0.00,WeatherDisplay:10.37,2013-03-08 16:33:00,
2013-03-08 11:38:00,48.7,24.8,30.20,NNE,32,13.8,13.8,39,0.00,CLR,,0.00,WeatherDisplay:10.37,2013-03-08 16:38:00,
2013-03-08 11:43:00,48.8,26.1,30.21,North,5,6.9,6.9,41,0.00,CLR,,0.00,WeatherDisplay:10.37,2013-03-08 16:43:00,
2013-03-08 11:48:00,48.7,24.2,30.20,NNE,27,10.4,10.4,38,0.00,CLR,,0.00,WeatherDisplay:10.37,2013-03-08 16:48:00,
2013-03-08 11:53:00,48.7,24.8,30.20,NNW,340,7.0,7.0,39,0.00,CLR,,0.00,WeatherDisplay:10.37,2013-03-08 16:53:00,
2013-03-08 11:58:00,49.1,24.6,30.20,NNW,331,5.8,5.8,38,0.00,CLR,,0.00,WeatherDisplay:10.37,2013-03-08 16:58:00,
2013-03-08 12:03:00,49.3,25.4,30.20,NNE,20,7.0,7.0,39,0.00,CLR,,0.00,WeatherDisplay:10.37,2013-03-08 17:03:00,
2013-03-08 12:08:00,49.3,23.4,30.19,South,187,11.5,11.5,36,0.00,CLR,,0.00,WeatherDisplay:10.37,2013-03-08 17:08:00,
2013-03-08 12:13:00,49.8,24.5,30.19,NE,54,4.6,4.6,37,0.00,CLR,,0.00,WeatherDisplay:10.37,2013-03-08 17:13:00,
2013-03-08 12:18:00,50.0,24.1,30.20,NNE,22,8.1,8.1,36,0.00,CLR,,0.00,WeatherDisplay:10.37,2013-03-08 17:18:00,
2013-03-08 12:23:00,49.8,23.9,30.19,NE,51,8.1,8.1,36,0.00,CLR,,0.00,WeatherDisplay:10.37,2013-03-08 17:23:00,
2013-03-08 12:28:00,50.6,25.3,30.19,NE,54,8.0,8.0,37,0.00,CLR,,0.00,WeatherDisplay:10.37,2013-03-08 17:28:00,
2013-03-08 12:33:00,50.6,23.2,30.18,NE,49,6.0,6.0,34,0.00,CLR,,0.00,WeatherDisplay:10.37,2013-03-08 17:33:00,
2013-03-08 12:38:00,50.5,23.8,30.18,WNW,302,11.5,11.5,35,0.00,CLR,,0.00,WeatherDisplay:10.37,2013-03-08 17:38:00,
2013-03-08 12:43:00,51.2,24.5,30.18,NE,54,6.9,6.9,35,0.00,CLR,,0.00,WeatherDisplay:10.37,2013-03-08 17:43:00,
2013-03-08 12:48:00,51.3,23.8,30.18,NW,315,8.1,8.1,34,0.00,CLR,,0.00,WeatherDisplay:10.37,2013-03-08 17:48:00,
2013-03-08 12:53:00,51.0,24.3,30.18,NNE,19,6.9,6.9,35,0.00,CLR,,0.00,WeatherDisplay:10.37,2013-03-08 17:53:00,
2013-03-08 12:58:00,51.0,24.3,30.17,East,86,9.2,9.2,35,0.00,CLR,,0.00,WeatherDisplay:10.37,2013-03-08 17:58:00,
2013-03-08 13:03:00,51.2,23.8,30.17,NNW,348,11.5,11.5,34,0.00,CLR,,0.00,WeatherDisplay:10.37,2013-03-08 18:03:00,
2013-03-08 13:08:00,50.5,23.1,30.16,NE,53,11.5,11.5,34,0.00,CLR,,0.00,WeatherDisplay:10.37,2013-03-08 18:08:00,
2013-03-08 13:13:00,50.6,23.2,30.16,NNE,27,13.8,13.8,34,0.00,CLR,,0.00,WeatherDisplay:10.37,2013-03-08 18:13:00,
2013-03-08 13:18:00,50.5,23.8,30.16,NNE,16,8.1,8.1,35,0.00,CLR,,0.00,WeatherDisplay:10.37,2013-03-08 18:18:00,
2013-03-08 13:23:00,50.9,23.5,30.16,WNW,285,12.7,12.7,34,0.00,CLR,,0.00,WeatherDisplay:10.37,2013-03-08 18:23:00,
2013-03-08 13:28:00,51.3,23.8,30.15,WSW,257,10.4,10.4,34,0.00,CLR,,0.00,WeatherDisplay:10.37,2013-03-08 18:28:00,
2013-03-08 13:33:00,51.8,24.3,30.15,West,267,3.5,3.5,34,0.00,CLR,,0.00,WeatherDisplay:10.37,2013-03-08 18:33:00,
2013-03-08 13:38:00,51.8,23.6,30.15,North,4,9.2,9.2,33,0.00,CLR,,0.00,WeatherDisplay:10.37,2013-03-08 18:38:00,
2013-03-08 13:43:00,52.4,25.5,30.15,NNE,24,3.5,3.5,35,0.00,CLR,,0.00,WeatherDisplay:10.37,2013-03-08 18:43:00,
2013-03-08 13:48:00,52.4,24.8,30.15,WSW,255,4.6,4.6,34,0.00,CLR,,0.00,WeatherDisplay:10.37,2013-03-08 18:48:00,
2013-03-08 13:53:00,53.0,25.3,30.15,North,4,6.9,6.9,34,0.00,CLR,,0.00,WeatherDisplay:10.37,2013-03-08 18:53:00,
2013-03-08 13:58:00,52.5,23.5,30.14,NE,38,11.5,11.5,32,0.00,CLR,,0.00,WeatherDisplay:10.37,2013-03-08 18:58:00,
2013-03-08 14:03:00,52.4,24.8,30.14,NNW,333,6.9,6.9,34,0.00,CLR,,0.00,WeatherDisplay:10.37,2013-03-08 19:03:00,
2013-03-08 14:08:00,53.0,25.3,30.14,NNE,23,4.6,4.6,34,0.00,CLR,,0.00,WeatherDisplay:10.37,2013-03-08 19:08:00,
2013-03-08 14:13:00,53.0,24.6,30.14,North,8,9.2,9.2,33,0.00,CLR,,0.00,WeatherDisplay:10.37,2013-03-08 19:13:00,
2013-03-08 14:18:00,53.3,24.9,30.14,NNW,336,5.8,5.8,33,0.00,CLR,,0.00,WeatherDisplay:10.37,2013-03-08 19:18:00,
2013-03-08 14:23:00,53.0,24.6,30.14,NE,50,11.5,11.5,33,0.00,CLR,,0.00,WeatherDisplay:10.37,2013-03-08 19:23:00,
2013-03-08 14:28:00,52.4,24.1,30.14,NE,41,15.0,15.0,33,0.00,CLR,,0.00,WeatherDisplay:10.37,2013-03-08 19:28:00,
2013-03-08 14:33:00,52.8,25.2,30.14,West,273,4.0,4.0,34,0.00,CLR,,0.00,WeatherDisplay:10.37,2013-03-08 19:33:00,
2013-03-08 14:38:00,53.0,24.6,30.14,NNE,13,11.5,11.5,33,0.00,CLR,,0.00,WeatherDisplay:10.37,2013-03-08 19:38:00,
2013-03-08 14:43:00,53.2,24.1,30.14,ENE,64,8.1,8.1,32,0.00,CLR,,0.00,WeatherDisplay:10.37,2013-03-08 19:43:00,
2013-03-08 14:48:00,53.3,24.9,30.13,NE,53,3.5,3.5,33,0.00,CLR,,0.00,WeatherDisplay:10.37,2013-03-08 19:48:00,
2013-03-08 14:53:00,53.7,25.2,30.13,North,5,6.9,6.9,33,0.00,CLR,,0.00,WeatherDisplay:10.37,2013-03-08 19:53:00,
2013-03-08 14:58:00,53.8,25.3,30.13,NW,308,5.8,5.8,33,0.00,CLR,,0.00,WeatherDisplay:10.37,2013-03-08 19:58:00,
2013-03-08 15:03:00,54.0,25.5,30.13,NW,321,4.6,4.6,33,0.00,CLR,,0.00,WeatherDisplay:10.37,2013-03-08 20:03:00,
2013-03-08 15:08:00,54.1,25.6,30.14,North,4,3.5,3.5,33,0.00,CLR,,0.00,WeatherDisplay:10.37,2013-03-08 20:08:00,
2013-03-08 15:13:00,54.2,24.9,30.14,North,355,8.1,8.1,32,0.00,CLR,,0.00,WeatherDisplay:10.37,2013-03-08 20:13:00,
2013-03-08 15:18:00,54.2,25.7,30.14,NE,47,5.8,5.8,33,0.00,CLR,,0.00,WeatherDisplay:10.37,2013-03-08 20:18:00,
2013-03-08 15:23:00,54.2,24.9,30.14,NNE,18,10.4,10.4,32,0.00,CLR,,0.00,WeatherDisplay:10.37,2013-03-08 20:23:00,
2013-03-08 15:28:00,54.3,25.8,30.14,West,281,5.8,5.8,33,0.00,CLR,,0.00,WeatherDisplay:10.37,2013-03-08 20:28:00,
2013-03-08 15:33:00,54.5,25.2,30.14,WSW,238,9.2,9.2,32,0.00,CLR,,0.00,WeatherDisplay:10.37,2013-03-08 20:33:00,
2013-03-08 15:38:00,54.5,25.2,30.14,WSW,256,11.0,11.0,32,0.00,CLR,,0.00,WeatherDisplay:10.37,2013-03-08 20:38:00,
2013-03-08 15:43:00,54.5,25.2,30.15,NNW,340,6.9,6.9,32,0.00,CLR,,0.00,WeatherDisplay:10.37,2013-03-08 20:43:00,
2013-03-08 15:48:00,54.7,25.4,30.15,NE,43,8.1,8.1,32,0.00,CLR,,0.00,WeatherDisplay:10.37,2013-03-08 20:48:00,
2013-03-08 15:53:00,54.9,25.6,30.15,NE,43,5.8,5.8,32,0.00,CLR,,0.00,WeatherDisplay:10.37,2013-03-08 20:53:00,
2013-03-08 15:58:00,54.8,25.5,30.15,NNW,348,10.4,10.4,32,0.00,CLR,,0.00,WeatherDisplay:10.37,2013-03-08 20:58:00,
2013-03-08 16:03:00,54.9,25.6,30.15,NNW,335,9.2,9.2,32,0.00,CLR,,0.00,WeatherDisplay:10.37,2013-03-08 21:03:00,
2013-03-08 16:08:00,54.8,26.2,30.15,WNW,284,3.5,3.5,33,0.00,CLR,,0.00,WeatherDisplay:10.37,2013-03-08 21:08:00,
2013-03-08 16:13:00,54.9,25.6,30.15,NW,309,3.5,3.5,32,0.00,CLR,,0.00,WeatherDisplay:10.37,2013-03-08 21:13:00,
2013-03-08 16:18:00,55.0,25.6,30.15,West,278,6.9,6.9,32,0.00,CLR,,0.00,WeatherDisplay:10.37,2013-03-08 21:18:00,
2013-03-08 16:23:00,55.2,25.8,30.15,North,5,4.6,4.6,32,0.00,CLR,,0.00,WeatherDisplay:10.37,2013-03-08 21:23:00,
2013-03-08 16:28:00,55.0,25.6,30.15,NNE,12,9.2,9.2,32,0.00,CLR,,0.00,WeatherDisplay:10.37,2013-03-08 21:28:00,
2013-03-08 16:33:00,54.9,25.6,30.15,West,278,8.1,8.1,32,0.00,CLR,,0.00,WeatherDisplay:10.37,2013-03-08 21:33:00,
2013-03-08 16:38:00,54.6,26.0,30.15,North,359,4.6,4.6,33,0.00,CLR,,0.00,WeatherDisplay:10.37,2013-03-08 21:38:00,
2013-03-08 16:43:00,54.4,25.1,30.15,NNE,24,8.1,8.1,32,0.00,CLR,,0.00,WeatherDisplay:10.37,2013-03-08 21:43:00,
2013-03-08 16:48:00,54.5,26.0,30.15,North,355,7.0,7.0,33,0.00,CLR,,0.00,WeatherDisplay:10.37,2013-03-08 21:48:00,
2013-03-08 16:53:00,54.3,25.0,30.15,NW,314,6.9,6.9,32,0.00,CLR,,0.00,WeatherDisplay:10.37,2013-03-08 21:53:00,
2013-03-08 16:58:00,54.2,25.7,30.15,NE,39,9.2,9.2,33,0.00,CLR,,0.00,WeatherDisplay:10.37,2013-03-08 21:58:00,
2013-03-08 17:03:00,54.2,25.7,30.15,WNW,292,4.6,4.6,33,0.00,CLR,,0.00,WeatherDisplay:10.37,2013-03-08 22:03:00,
2013-03-08 17:08:00,54.1,25.6,30.16,West,265,5.8,5.8,33,0.00,CLR,,0.00,WeatherDisplay:10.37,2013-03-08 22:08:00,
2013-03-08 17:13:00,54.0,25.5,30.16,NNW,338,3.5,3.5,33,0.00,CLR,,0.00,WeatherDisplay:10.37,2013-03-08 22:13:00,
2013-03-08 17:18:00,53.9,26.1,30.16,North,352,11.5,11.5,34,0.00,CLR,,0.00,WeatherDisplay:10.37,2013-03-08 22:18:00,
2013-03-08 17:23:00,53.8,25.3,30.16,NNE,20,4.6,4.6,33,0.00,CLR,,0.00,WeatherDisplay:10.37,2013-03-08 22:23:00,
2013-03-08 17:28:00,53.6,25.9,30.16,WSW,238,3.5,3.5,34,0.00,CLR,,0.00,WeatherDisplay:10.37,2013-03-08 22:28:00,
2013-03-08 17:33:00,53.4,25.0,30.17,WNW,300,6.9,6.9,33,0.00,CLR,,0.00,WeatherDisplay:10.37,2013-03-08 22:33:00,
2013-03-08 17:38:00,53.1,25.4,30.17,NW,307,3.5,3.5,34,0.00,CLR,,0.00,WeatherDisplay:10.37,2013-03-08 22:38:00,
2013-03-08 17:43:00,52.8,25.2,30.17,WNW,294,2.3,2.3,34,0.00,CLR,,0.00,WeatherDisplay:10.37,2013-03-08 22:43:00,
2013-03-08 17:48:00,52.6,25.0,30.17,North,1,2.3,2.3,34,0.00,CLR,,0.00,WeatherDisplay:10.37,2013-03-08 22:48:00,
2013-03-08 17:53:00,52.3,25.4,30.17,NNW,335,1.1,0.0,35,0.00,CLR,,0.00,WeatherDisplay:10.37,2013-03-08 22:53:00,
2013-03-08 17:58:00,52.0,25.8,30.17,NW,308,2.3,2.3,36,0.00,CLR,,0.00,WeatherDisplay:10.37,2013-03-08 22:58:00,
2013-03-08 18:03:00,51.8,25.7,30.17,NE,39,2.3,2.3,36,0.00,CLR,,0.00,WeatherDisplay:10.37,2013-03-08 23:03:00,
2013-03-08 18:08:00,51.5,25.4,30.17,NNE,15,3.5,3.5,36,0.00,CLR,,0.00,WeatherDisplay:10.37,2013-03-08 23:08:00,
2013-03-08 18:13:00,51.3,25.9,30.17,North,356,3.5,3.5,37,0.00,CLR,,0.00,WeatherDisplay:10.37,2013-03-08 23:13:00,
2013-03-08 18:18:00,51.1,25.7,30.17,North,11,4.6,4.6,37,0.00,CLR,,0.00,WeatherDisplay:10.37,2013-03-08 23:18:00,
2013-03-08 18:24:00,51.0,25.6,30.17,WNW,297,3.5,3.5,37,0.00,CLR,,0.00,WeatherDisplay:10.37,2013-03-08 23:24:00,
2013-03-08 18:29:00,50.8,25.4,30.18,NW,312,5.8,5.8,37,0.00,CLR,,0.00,WeatherDisplay:10.37,2013-03-08 23:29:00,
2013-03-08 18:34:00,50.6,25.3,30.18,NW,305,2.3,2.3,37,0.00,CLR,,0.00,WeatherDisplay:10.37,2013-03-08 23:34:00,
2013-03-08 18:39:00,50.4,25.7,30.18,NW,304,3.5,3.5,38,0.00,CLR,,0.00,WeatherDisplay:10.37,2013-03-08 23:39:00,
2013-03-08 18:44:00,50.2,25.5,30.18,NNE,21,1.1,1.1,38,0.00,CLR,,0.00,WeatherDisplay:10.37,2013-03-08 23:44:00,
2013-03-08 18:49:00,50.0,25.4,30.18,NNE,16,2.3,2.3,38,0.00,CLR,,0.00,WeatherDisplay:10.37,2013-03-08 23:49:00,
2013-03-08 18:54:00,49.8,25.8,30.19,NNE,20,1.1,1.1,39,0.00,CLR,,0.00,WeatherDisplay:10.37,2013-03-08 23:54:00,
2013-03-08 18:59:00,49.4,25.4,30.19,NNE,27,2.3,2.3,39,0.00,CLR,,0.00,WeatherDisplay:10.37,2013-03-08 23:59:00,
2013-03-08 19:04:00,49.3,26.0,30.19,North,9,3.5,3.5,40,0.00,CLR,,0.00,WeatherDisplay:10.37,2013-03-09 00:04:00,
2013-03-08 19:09:00,49.2,25.9,30.19,North,356,2.3,2.3,40,0.00,CLR,,0.00,WeatherDisplay:10.37,2013-03-09 00:09:00,
2013-03-08 19:14:00,49.1,25.8,30.19,NNE,24,2.3,2.3,40,0.00,CLR,,0.00,WeatherDisplay:10.37,2013-03-09 00:14:00,
2013-03-08 19:19:00,48.9,25.6,30.19,SSW,212,2.3,2.3,40,0.00,CLR,,0.00,WeatherDisplay:10.37,2013-03-09 00:19:00,
2013-03-08 19:24:00,48.7,25.4,30.19,NE,36,3.5,3.5,40,0.00,CLR,,0.00,WeatherDisplay:10.37,2013-03-09 00:24:00,
2013-03-08 19:29:00,48.5,25.8,30.19,WNW,285,2.3,2.3,41,0.00,CLR,,0.00,WeatherDisplay:10.37,2013-03-09 00:29:00,
2013-03-08 19:34:00,48.2,25.6,30.20,NNW,347,1.1,1.1,41,0.00,CLR,,0.00,WeatherDisplay:10.37,2013-03-09 00:34:00,
2013-03-08 19:39:00,48.0,25.4,30.20,NNE,26,2.0,2.0,41,0.00,CLR,,0.00,WeatherDisplay:10.37,2013-03-09 00:39:00,
2013-03-08 19:44:00,48.3,25.7,30.20,WNW,294,3.5,3.5,41,0.00,CLR,,0.00,WeatherDisplay:10.37,2013-03-09 00:44:00,
2013-03-08 19:49:00,48.3,25.7,30.20,SW,231,2.3,2.3,41,0.00,CLR,,0.00,WeatherDisplay:10.37,2013-03-09 00:49:00,
2013-03-08 19:54:00,48.4,25.8,30.20,North,11,2.3,2.3,41,0.00,CLR,,0.00,WeatherDisplay:10.37,2013-03-09 00:54:00,
2013-03-08 19:59:00,48.3,25.7,30.20,NNE,15,2.3,2.3,41,0.00,CLR,,0.00,WeatherDisplay:10.37,2013-03-09 00:59:00,
2013-03-08 20:04:00,48.1,25.5,30.20,NNE,24,2.3,2.3,41,0.00,CLR,,0.00,WeatherDisplay:10.37,2013-03-09 01:04:00,
2013-03-08 20:09:00,47.9,25.9,30.20,WNW,296,3.5,3.5,42,0.00,CLR,,0.00,WeatherDisplay:10.37,2013-03-09 01:09:00,
2013-03-08 20:14:00,47.7,25.7,30.20,NNE,16,1.1,0.0,42,0.00,CLR,,0.00,WeatherDisplay:10.37,2013-03-09 01:14:00,
2013-03-08 20:19:00,47.5,26.1,30.21,NNE,18,0.0,0.0,43,0.00,CLR,,0.00,WeatherDisplay:10.37,2013-03-09 01:19:00,
2013-03-08 20:24:00,47.1,25.7,30.21,NNE,12,1.1,1.1,43,0.00,CLR,,0.00,WeatherDisplay:10.37,2013-03-09 01:24:00,
2013-03-08 20:29:00,46.9,26.1,30.21,NNE,16,0.0,0.0,44,0.00,CLR,,0.00,WeatherDisplay:10.37,2013-03-09 01:29:00,
2013-03-08 20:34:00,46.4,26.2,30.21,NNE,16,0.0,0.0,45,0.00,CLR,,0.00,WeatherDisplay:10.37,2013-03-09 01:34:00,
2013-03-08 20:39:00,45.9,26.3,30.21,NNW,336,1.1,1.1,46,0.00,CLR,,0.00,WeatherDisplay:10.37,2013-03-09 01:39:00,
2013-03-08 20:44:00,45.7,26.1,30.21,North,4,1.1,1.1,46,0.00,CLR,,0.00,WeatherDisplay:10.37,2013-03-09 01:44:00,
2013-03-08 20:49:00,45.8,26.7,30.21,North,8,2.3,2.3,47,0.00,CLR,,0.00,WeatherDisplay:10.37,2013-03-09 01:49:00,
2013-03-08 20:54:00,45.9,26.8,30.22,North,360,3.5,3.5,47,0.00,CLR,,0.00,WeatherDisplay:10.37,2013-03-09 01:54:00,
2013-03-08 20:59:00,46.0,26.9,30.21,NNE,22,1.1,1.1,47,0.00,CLR,,0.00,WeatherDisplay:10.37,2013-03-09 01:59:00,
2013-03-08 21:04:00,45.8,26.7,30.22,NNE,30,3.5,3.5,47,0.00,CLR,,0.00,WeatherDisplay:10.37,2013-03-09 02:04:00,
2013-03-08 21:09:00,45.6,27.0,30.22,NNW,348,0.0,0.0,48,0.00,CLR,,0.00,WeatherDisplay:10.37,2013-03-09 02:09:00,
2013-03-08 21:14:00,45.3,27.2,30.23,WNW,302,1.1,1.1,49,0.00,CLR,,0.00,WeatherDisplay:10.37,2013-03-09 02:14:00,
2013-03-08 21:19:00,44.9,26.9,30.23,NW,308,2.3,2.3,49,0.00,CLR,,0.00,WeatherDisplay:10.37,2013-03-09 02:19:00,
2013-03-08 21:24:00,44.9,26.9,30.23,NNE,31,4.6,4.6,49,0.00,CLR,,0.00,WeatherDisplay:10.37,2013-03-09 02:24:00,
2013-03-08 21:29:00,45.1,27.1,30.23,NW,325,5.8,5.8,49,0.00,CLR,,0.00,WeatherDisplay:10.37,2013-03-09 02:29:00,
2013-03-08 21:34:00,45.3,27.2,30.23,North,11,5.0,5.0,49,0.00,CLR,,0.00,WeatherDisplay:10.37,2013-03-09 02:34:00,
2013-03-08 21:39:00,45.3,27.7,30.23,NW,312,5.8,5.8,50,0.00,CLR,,0.00,WeatherDisplay:10.37,2013-03-09 02:39:00,
2013-03-08 21:44:00,45.2,27.6,30.24,North,359,4.6,4.6,50,0.00,CLR,,0.00,WeatherDisplay:10.37,2013-03-09 02:44:00,
2013-03-08 21:49:00,45.1,27.6,30.24,NNE,20,3.5,3.5,50,0.00,CLR,,0.00,WeatherDisplay:10.37,2013-03-09 02:49:00,
2013-03-08 21:54:00,44.8,27.8,30.24,NW,312,3.5,3.5,51,0.00,CLR,,0.00,WeatherDisplay:10.37,2013-03-09 02:54:00,
2013-03-08 21:59:00,44.7,27.7,30.24,North,9,2.3,2.3,51,0.00,CLR,,0.00,WeatherDisplay:10.37,2013-03-09 02:59:00,
2013-03-08 22:04:00,44.5,28.0,30.24,NE,51,6.9,6.9,52,0.00,CLR,,0.00,WeatherDisplay:10.37,2013-03-09 03:04:00,
2013-03-08 22:09:00,44.4,27.9,30.24,NNE,20,4.6,4.6,52,0.00,CLR,,0.00,WeatherDisplay:10.37,2013-03-09 03:09:00,
2013-03-08 22:14:00,44.3,27.8,30.25,NNW,343,3.5,3.5,52,0.00,CLR,,0.00,WeatherDisplay:10.37,2013-03-09 03:14:00,
2013-03-08 22:19:00,44.1,28.0,30.25,North,4,1.1,0.0,53,0.00,CLR,,0.00,WeatherDisplay:10.37,2013-03-09 03:19:00,
2013-03-08 22:24:00,43.9,27.9,30.25,NNW,347,1.1,1.1,53,0.00,CLR,,0.00,WeatherDisplay:10.37,2013-03-09 03:24:00,
2013-03-08 22:29:00,43.7,28.1,30.25,NW,309,0.0,0.0,54,0.00,CLR,,0.00,WeatherDisplay:10.37,2013-03-09 03:29:00,
2013-03-08 22:34:00,43.4,27.8,30.26,NW,325,2.3,2.3,54,0.00,CLR,,0.00,WeatherDisplay:10.37,2013-03-09 03:34:00,
2013-03-08 22:39:00,43.2,28.1,30.26,NNE,33,1.1,1.1,55,0.00,CLR,,0.00,WeatherDisplay:10.37,2013-03-09 03:39:00,
2013-03-08 22:44:00,43.0,27.9,30.26,WSW,253,1.1,1.1,55,0.00,CLR,,0.00,WeatherDisplay:10.37,2013-03-09 03:44:00,
2013-03-08 22:49:00,42.7,28.1,30.27,NW,309,1.1,0.0,56,0.00,CLR,,0.00,WeatherDisplay:10.37,2013-03-09 03:49:00,
2013-03-08 22:54:00,42.3,28.1,30.27,North,352,0.0,0.0,57,0.00,CLR,,0.00,WeatherDisplay:10.37,2013-03-09 03:54:00,
2013-03-08 22:59:00,42.1,28.4,30.27,West,274,0.0,0.0,58,0.00,CLR,,0.00,WeatherDisplay:10.37,2013-03-09 03:59:00,
2013-03-08 23:04:00,41.8,28.1,30.27,NNE,27,1.1,0.0,58,0.00,CLR,,0.00,WeatherDisplay:10.37,2013-03-09 04:04:00,
2013-03-08 23:09:00,41.8,28.1,30.27,NNE,23,1.1,1.1,58,0.00,CLR,,0.00,WeatherDisplay:10.37,2013-03-09 04:09:00,
2013-03-08 23:14:00,41.7,28.0,30.27,NW,307,1.1,1.1,58,0.00,CLR,,0.00,WeatherDisplay:10.37,2013-03-09 04:14:00,
2013-03-08 23:19:00,41.5,27.8,30.27,NNE,18,2.3,2.3,58,0.00,CLR,,0.00,WeatherDisplay:10.37,2013-03-09 04:19:00,
2013-03-08 23:24:00,41.6,27.9,30.27,NNW,328,0.0,0.0,58,0.00,CLR,,0.00,WeatherDisplay:10.37,2013-03-09 04:24:00,
2013-03-08 23:29:00,41.4,28.1,30.27,North,358,1.1,1.1,59,0.00,CLR,,0.00,WeatherDisplay:10.37,2013-03-09 04:29:00,
2013-03-08 23:34:00,41.3,28.0,30.27,NNW,345,1.1,1.1,59,0.00,CLR,,0.00,WeatherDisplay:10.37,2013-03-09 04:34:00,
2013-03-08 23:39:00,41.2,28.4,30.27,WNW,293,0.0,0.1,60,0.00,CLR,,0.00,WeatherDisplay:10.37,2013-03-09 04:39:00,
2013-03-08 23:44:00,41.0,28.2,30.27,NNE,26,1.0,0.0,60,0.00,CLR,,0.00,WeatherDisplay:10.37,2013-03-09 04:44:00,
2013-03-08 23:49:00,41.0,28.2,30.27,NW,315,0.0,0.0,60,0.00,CLR,,0.00,WeatherDisplay:10.37,2013-03-09 04:49:00,
2013-03-08 23:54:00,40.7,27.9,30.27,NW,325,0.0,0.0,60,0.00,CLR,,0.00,WeatherDisplay:10.37,2013-03-09 04:54:00,
2013-03-08 23:59:00,40.5,28.1,30.27,NW,316,0.0,0.0,61,0.00,CLR,,0.00,WeatherDisplay:10.37,2013-03-09 04:59:00,